Simultaneous Nadir Overpasses (SNOs) Predictions

Prediction of SNOs between GOES-16 and FY3D Satellite Orbit:

Table of predicted SNOs for the next 14.0 days since TLE Epoch: 4/27/2024
Index Date Time (GOES-16) GOES-16 Lat,Lon FY3D Lat,Lon Distance(km) Time Diff (sec)
1 04/27/2024 07:15:44 -0.02, -75.21 -0.63, -72.47 312.32 80
2 04/28/2024 19:40:40 0.01, -75.21 -0.59, -77.82 297.71 80
3 04/29/2024 19:22:09 0.01, -75.21 0.43, -73.32 214.87 80
4 05/01/2024 07:44:15 -0.01, -75.22 0.79, -78.63 389.53 80
5 05/02/2024 07:23:04 -0.01, -75.23 -0.24, -74.14 123.39 80
6 05/03/2024 19:45:20 0.00, -75.23 -0.96, -79.49 485.58 80
7 05/04/2024 19:26:49 0.00, -75.25 0.08, -75.00 28.06 80
8 05/07/2024 07:33:02 -0.00, -75.28 0.13, -75.81 61.07 80
9 05/08/2024 07:11:51 -0.01, -75.29 -0.92, -71.33 452.74 80
10 05/09/2024 19:34:06 0.01, -75.31 -0.30, -76.67 155.17 80
11 05/10/2024 19:18:14 0.01, -75.33 0.70, -72.17 359.10 80
